TimeCST,TemperatureF,Dew PointF,Humidity,Sea Level PressureIn,VisibilityMPH,Wind Direction,Wind SpeedMPH,Gust SpeedMPH,PrecipitationIn,Events,Conditions,WindDirDegrees,DateUTC
12:15 AM,21.2,19.4,93,30.12,10.0,Calm,Calm,-,N/A,,Clear,0,2012-12-23 06:15:00
12:35 AM,21.2,19.4,93,30.12,10.0,Calm,Calm,-,N/A,,Clear,0,2012-12-23 06:35:00
12:55 AM,23.0,19.4,86,30.12,10.0,Calm,Calm,-,N/A,,Clear,0,2012-12-23 06:55:00
1:15 AM,23.0,21.2,93,30.12,10.0,Calm,Calm,-,N/A,,Clear,0,2012-12-23 07:15:00
1:35 AM,23.0,21.2,93,30.13,10.0,Calm,Calm,-,N/A,,Clear,0,2012-12-23 07:35:00
1:55 AM,23.0,21.2,93,30.13,10.0,Calm,Calm,-,N/A,,Clear,0,2012-12-23 07:55:00
2:15 AM,24.8,21.2,86,30.13,10.0,Calm,Calm,-,N/A,,Clear,0,2012-12-23 08:15:00
2:35 AM,24.8,21.2,86,30.13,10.0,Calm,Calm,-,N/A,,Clear,0,2012-12-23 08:35:00
2:55 AM,24.8,21.2,86,30.13,10.0,Calm,Calm,-,N/A,,Clear,0,2012-12-23 08:55:00
3:15 AM,24.8,21.2,86,30.12,10.0,South,3.5,-,N/A,,Clear,180,2012-12-23 09:15:00
3:35 AM,24.8,21.2,86,30.11,10.0,South,3.5,-,N/A,,Clear,190,2012-12-23 09:35:00
3:55 AM,24.8,21.2,86,30.11,10.0,SSW,4.6,-,N/A,,Clear,200,2012-12-23 09:55:00
4:15 AM,30.2,23.0,75,30.11,10.0,South,4.6,-,N/A,,Clear,190,2012-12-23 10:15:00
4:35 AM,32.0,24.8,75,30.11,10.0,SSW,4.6,-,N/A,,Clear,200,2012-12-23 10:35:00
4:55 AM,32.0,26.6,80,30.10,10.0,South,5.8,-,N/A,,Clear,190,2012-12-23 10:55:00
5:15 AM,33.8,26.6,75,30.10,10.0,SSW,4.6,-,N/A,,Clear,200,2012-12-23 11:15:00
5:35 AM,33.8,24.8,70,30.09,10.0,SSW,4.6,-,N/A,,Clear,200,2012-12-23 11:35:00
5:55 AM,33.8,26.6,75,30.09,10.0,SSW,3.5,-,N/A,,Clear,200,2012-12-23 11:55:00
6:15 AM,35.6,26.6,70,30.09,10.0,SSW,4.6,-,N/A,,Clear,200,2012-12-23 12:15:00
6:35 AM,35.6,26.6,70,30.09,10.0,SSW,4.6,-,N/A,,Clear,210,2012-12-23 12:35:00
6:55 AM,35.6,28.4,75,30.09,10.0,SSW,5.8,-,N/A,,Clear,210,2012-12-23 12:55:00
7:15 AM,35.6,28.4,75,30.09,10.0,South,4.6,-,N/A,,Clear,190,2012-12-23 13:15:00
7:35 AM,35.6,28.4,75,30.09,10.0,SSW,3.5,-,N/A,,Clear,200,2012-12-23 13:35:00
7:55 AM,37.4,28.4,70,30.10,10.0,SSW,4.6,-,N/A,,Clear,200,2012-12-23 13:55:00
8:15 AM,39.2,30.2,70,30.09,10.0,SSW,4.6,-,N/A,,Clear,200,2012-12-23 14:15:00
8:35 AM,41.0,30.2,65,30.09,10.0,SSW,5.8,-,N/A,,Clear,200,2012-12-23 14:35:00
8:55 AM,42.8,32.0,66,30.09,10.0,SSW,6.9,-,N/A,,Clear,210,2012-12-23 14:55:00
9:15 AM,44.6,32.0,61,30.09,10.0,SW,8.1,-,N/A,,Clear,220,2012-12-23 15:15:00
9:35 AM,46.4,33.8,62,30.09,10.0,SSW,8.1,-,N/A,,Clear,210,2012-12-23 15:35:00
9:55 AM,46.4,33.8,62,30.08,10.0,SW,9.2,-,N/A,,Clear,230,2012-12-23 15:55:00
10:15 AM,48.2,35.6,62,30.08,10.0,SW,11.5,-,N/A,,Partly Cloudy,220,2012-12-23 16:15:00
10:35 AM,48.2,35.6,62,30.07,10.0,SW,8.1,-,N/A,,Mostly Cloudy,220,2012-12-23 16:35:00
10:55 AM,48.2,35.6,62,30.06,10.0,SSW,6.9,-,N/A,,Mostly Cloudy,210,2012-12-23 16:55:00
11:15 AM,48.2,35.6,62,30.06,10.0,SW,6.9,-,N/A,,Mostly Cloudy,230,2012-12-23 17:15:00
11:35 AM,48.2,37.4,66,30.05,10.0,SW,8.1,-,N/A,,Overcast,230,2012-12-23 17:35:00
11:55 AM,48.2,37.4,66,30.03,10.0,SW,8.1,-,N/A,,Overcast,220,2012-12-23 17:55:00
12:15 PM,48.2,37.4,66,30.02,10.0,SW,9.2,-,N/A,,Overcast,230,2012-12-23 18:15:00
12:35 PM,48.2,37.4,66,30.02,10.0,SW,10.4,-,N/A,,Overcast,230,2012-12-23 18:35:00
12:55 PM,48.2,39.2,71,30.02,10.0,SW,10.4,-,N/A,,Overcast,220,2012-12-23 18:55:00
1:15 PM,46.4,41.0,81,30.02,8.0,SW,12.7,-,N/A,,Overcast,230,2012-12-23 19:15:00
1:35 PM,44.6,41.0,87,30.01,10.0,SSW,4.6,-,N/A,,Overcast,210,2012-12-23 19:35:00
1:55 PM,44.6,42.8,93,30.02,5.0,SSW,10.4,-,N/A,,Overcast,200,2012-12-23 19:55:00
2:15 PM,42.8,42.8,100,30.01,2.5,SW,9.2,-,N/A,,Overcast,220,2012-12-23 20:15:00
2:35 PM,42.8,42.8,100,30.01,6.0,SSW,3.5,-,N/A,,Overcast,200,2012-12-23 20:35:00
2:55 PM,42.8,42.8,100,30.01,2.5,SSW,6.9,-,N/A,,Overcast,210,2012-12-23 20:55:00
3:15 PM,42.8,42.8,100,30.01,3.0,SSW,4.6,-,N/A,,Overcast,200,2012-12-23 21:15:00
3:35 PM,42.8,42.8,100,30.01,2.0,South,3.5,-,N/A,,Overcast,190,2012-12-23 21:35:00
3:55 PM,42.8,42.8,100,30.01,1.8,SSW,4.6,-,N/A,,Overcast,200,2012-12-23 21:55:00
4:15 PM,42.8,42.8,100,30.01,1.2,Calm,Calm,-,N/A,,Overcast,0,2012-12-23 22:15:00
4:35 PM,42.8,42.8,100,30.00,2.0,Calm,Calm,-,N/A,,Overcast,0,2012-12-23 22:35:00
4:55 PM,42.8,42.8,100,30.00,1.2,Calm,Calm,-,N/A,,Overcast,0,2012-12-23 22:55:00
5:15 PM,42.8,42.8,100,30.00,1.8,Calm,Calm,-,N/A,,Overcast,0,2012-12-23 23:15:00
5:35 PM,42.8,42.8,100,30.00,1.2,Calm,Calm,-,N/A,,Overcast,0,2012-12-23 23:35:00
5:55 PM,42.8,42.8,100,29.99,2.0,Calm,Calm,-,N/A,,Overcast,0,2012-12-23 23:55:00
6:15 PM,44.6,42.8,93,29.99,2.5,Variable,3.5,-,N/A,,Overcast,0,2012-12-24 00:15:00
6:35 PM,44.6,44.6,100,30.00,7.0,South,5.8,-,N/A,,Overcast,170,2012-12-24 00:35:00
6:55 PM,44.6,44.6,100,30.00,4.0,South,6.9,-,N/A,,Overcast,170,2012-12-24 00:55:00
7:15 PM,44.6,44.6,100,30.00,5.0,SSE,6.9,-,N/A,,Overcast,160,2012-12-24 01:15:00
7:35 PM,44.6,44.6,100,29.99,3.0,South,6.9,-,N/A,,Overcast,170,2012-12-24 01:35:00
7:55 PM,44.6,44.6,100,29.99,4.0,SSE,4.6,-,N/A,,Overcast,160,2012-12-24 01:55:00
8:15 PM,44.6,44.6,100,29.99,2.5,South,5.8,-,N/A,,Overcast,180,2012-12-24 02:15:00
8:55 PM,44.6,44.6,100,29.98,2.0,South,5.8,-,N/A,,Overcast,170,2012-12-24 02:55:00
9:15 PM,44.6,44.6,100,29.98,7.0,South,6.9,-,N/A,,Overcast,180,2012-12-24 03:15:00
9:35 PM,44.6,44.6,100,29.97,6.0,South,6.9,-,N/A,,Overcast,180,2012-12-24 03:35:00
9:55 PM,44.6,44.6,100,29.97,10.0,South,5.8,-,N/A,,Overcast,180,2012-12-24 03:55:00
10:15 PM,44.6,44.6,100,29.97,10.0,South,6.9,-,N/A,,Overcast,170,2012-12-24 04:15:00
10:35 PM,44.6,44.6,100,29.96,10.0,South,5.8,-,N/A,,Overcast,170,2012-12-24 04:35:00
10:55 PM,44.6,44.6,100,29.95,10.0,South,6.9,-,N/A,,Overcast,170,2012-12-24 04:55:00
11:15 PM,44.6,44.6,100,29.94,10.0,SSE,8.1,-,N/A,,Overcast,160,2012-12-24 05:15:00
11:35 PM,44.6,44.6,100,29.93,10.0,South,6.9,-,N/A,,Overcast,170,2012-12-24 05:35:00
11:55 PM,44.6,44.6,100,29.92,7.0,South,6.9,-,N/A,,Overcast,170,2012-12-24 05:55:00